SCP
1 1 1 1 0 0 0 0 0 0 0 0 0 0 0 0 0 0 0 0 0 0 0 0 0 0 0 0 0 0 0 0 0 0 0 0 0 0
1 1 1 1 0 0 0 0 0 0 0 0 0 0 0 0 0 0 0 0 0 0 0 0 0 0 0 0 0 0 0 0 0 0 0 0 0 0
1 1 0 0 0 0 0 0 0 0 0 0 0 0 0 0 0 0 0 0 0 0 0 0 0 0 0 0 0 0 0 0 0 0 0 0 0 0
0 0 0 0 0 0 0 0 0 0 0 0 0 0 0 0 0 0 0 0 0 0 0 0 0 0 0 0 0 0 0 0 0 0 0 0 0 0
0 0 0 0 0 0 0 0 0 0 0 0 0 0 0 0 0 0 0 0 0 0 0 0 0 0 0 0 0 0 0 0 0 0 0 0 0 0
0 0 0 0 0 0 0 0 0 0 0 0 0 0 0 0 0 0 0 0 0 0 0 0 0 0 0 0 0 0 0 0 0 0 0 0 0 0
0 0 0 0 0 0 0 0 0 0 0 0 0 0 0 0 0 0 0 0 0 0 0 0 0 0 0 0 0 0 0 0 0 0 0 0 0 0
0 0 0 0 0 0 0 0 0 0 0 0 0 0 0 0 0 0 0 0 0 0 0 0 0 0 0 0 0 0 0 0 0 0 0 0 0 0
0 0 0 0 0 0 0 0 0 0 0 0 0 0 0 0 0 0 0 0 0 0 0 0 0 0 0 0 0 0 0 0 0 0 0 0 0 0
0 0 0 0 0 0 0 0 0 0 0 0 0 0 0 0 0 0 0 0 0 0 0 0 0 0 0 0 0 0 0 0 0 0 0 0 0 0
0 0 0 0 0 0 0 0 0 0 0 0 0 0 0 0 0 0 0 0 0 0 0 0 0 0 0 0 0 0 0 0 0 0 0 0 0 0
0 0 0 0 0 0 0 0 0 0 0 0 0 0 0 0 0 0 0 0 0 0 0 0 0 0 0 0 0 0 0 0 0 0 0 0 0 0
0 0 0 0 0 0 0 0 0 0 0 0 0 0 0 0 0 0 0 0 0 0 0 0 0 0 0 0 0 0 0 0 0 0 0 0 0 0
0 0 0 0 0 0 0 0 0 0 0 0 0 0 0 0 0 0 0 0 0 0 0 0 0 0 0 0 0 0 0 0 0 0 0 0 0 0
0 0 0 0 0 0 0 0 0 0 0 0 0 0 0 0 0 0 0 0 0 0 0 0 0 0 0 0 0 0 0 0 0 0 0 0 0 0
0 0 0 0 0 0 0 0 0 0 0 0 0 0 0 0 0 0 0 0 0 0 0 0 0 0 0 0 0 0 0 0 0 0 0 0 0 0
0 0 0 0 0 0 0 0 0 0 0 0 0 0 0 0 0 0 0 0 0 0 0 0 0 0 0 0 0 0 0 0 0 0 0 0 0 0
0 0 0 0 0 0 0 0 0 0 0 0 0 0 0 0 0 0 0 0 0 0 0 0 0 0 0 0 0 0 0 0 0 0 0 0 0 0
0 0 0 0 0 0 0 0 0 0 0 0 0 0 0 0 0 0 0 0 0 0 0 0 0 0 0 0 0 0 0 0 0 0 0 0 0 0
0 0 0 0 0 1 1 1 1 1 1 1 1 1 1 1 1 0 0 0 0 0 0 0 0 0 0 0 0 0 0 0 0 0 0 0 0 0
0 0 0 0 0 0 1 1 1 1 1 1 1 1 0 0 0 0 0 0 0 0 0 0 0 0 0 0 0 0 0 0 0 0 0 0 0 0
0 0 0 0 0 0 0 0 0 0 0 0 0 0 0 0 0 0 0 0 0 0 0 0 0 0 0 0 0 0 0 0 0 0 0 0 0 0
0 0 0 0 0 0 0 0 0 0 0 0 0 0 0 0 0 0 0 0 0 0 0 0 0 0 0 0 0 0 0 0 0 0 0 0 0 0
Wind_Speed
2 2 1 1 2 2 3 4 4 3 2 2 1 3 3 3 5 3 4 8 8 9 9 10 10 10 10 11 11 12 12 13 13 13 14 14 14 15
2 2 2 1 2 2 2 2 3 4 2 2 2 3 4 4 6 4 4 8 8 8 8 9 9 9 9 10 10 10 11 11 12 12 12 13 13 14
3 3 3 3 2 2 2 2 2 3 4 2 2 3 4 4 4 4 4 3 4 8 8 8 8 8 8 8 9 9 10 10 11 11 11 12 13 13
3 3 3 3 3 2 2 2 2 3 5 5 2 2 3 4 4 3 4 4 3 6 7 7 7 7 7 7 7 8 8 9 10 10 11 11 12 12
4 4 4 5 4 2 3 3 2 4 4 5 3 2 2 3 3 2 3 3 4 5 6 6 6 6 5 6 6 7 7 7 8 9 9 10 10 11
4 4 3 5 5 4 3 3 4 4 4 4 3 3 2 2 3 2 1 1 2 3 3 4 4 4 4 4 4 5 5 5 6 6 7 8 8 9
4 4 4 6 7 5 4 4 4 4 4 4 4 3 2 2 2 2 2 1 0 1 2 2 2 1 1 2 2 3 3 4 4 4 5 5 6 7
4 4 5 6 8 8 8 7 6 5 4 4 3 4 4 3 3 3 3 2 1 1 2 1 2 2 1 1 2 3 3 3 3 3 3 3 4 5
3 4 4 5 6 5 6 7 5 5 5 4 4 5 5 4 4 3 3 3 2 2 2 1 1 2 1 2 5 4 4 3 2 2 2 2 2 3
3 4 4 6 5 6 5 4 3 2 3 3 3 4 4 4 5 5 4 2 1 1 2 1 1 1 1 1 5 5 4 3 3 2 1 1 1 1
2 3 5 5 7 8 5 4 3 2 3 5 6 5 6 6 5 3 3 3 1 1 1 2 1 1 1 1 2 4 4 3 2 1 0 0 1 1
3 3 5 6 9 8 5 5 4 3 4 3 4 4 4 4 5 4 4 3 2 1 2 2 1 1 0 0 1 1 1 2 2 2 1 1 1 1
3 3 4 9 10 8 5 4 4 4 4 4 3 2 2 2 2 2 2 3 3 2 2 3 1 1 2 1 0 1 1 1 1 1 1 1 1 1
3 3 4 10 10 8 5 4 6 5 3 3 3 2 2 2 2 2 2 2 2 2 3 3 2 2 2 1 1 1 1 1 1 1 1 1 1 1
2 5 8 10 9 6 5 6 5 3 3 3 3 3 2 2 2 2 2 2 2 1 1 1 2 2 2 2 1 1 0 1 1 1 1 1 1 1
3 6 9 9 6 5 4 4 3 3 3 3 3 2 2 2 2 2 2 2 1 0 0 1 2 2 2 1 2 1 1 2 1 1 1 1 1 1
5 4 4 4 4 3 3 3 3 3 3 2 3 3 2 2 2 2 2 2 2 2 1 0 1 2 2 1 1 1 1 1 1 2 1 1 2 2
6 5 5 5 5 5 5 4 4 4 4 3 3 4 4 3 3 2 2 3 3 3 2 2 1 1 1 2 2 3 2 2 1 1 1 1 2 2
5 5 5 6 5 5 5 5 5 4 4 4 4 4 4 4 4 3 3 3 3 3 2 2 2 3 2 3 3 3 3 2 1 1 2 2 3 3
4 5 5 6 5 6 5 5 4 4 4 4 4 4 4 4 4 4 4 4 3 2 2 2 3 3 4 3 2 2 3 3 2 2 2 2 2 3
5 5 5 5 5 5 5 5 5 5 5 5 5 5 5 4 4 4 4 5 4 3 4 4 4 4 2 1 0 2 2 3 4 3 2 1 2 2
5 5 4 5 5 5 5 5 5 5 5 5 5 5 5 4 5 5 5 4 4 4 3 2 2 2 1 2 3 3 2 2 3 4 4 4 3 3
5 5 5 5 5 4 5 5 6 5 5 5 5 5 5 4 4 4 4 4 4 3 3 2 2 1 2 2 3 2 3 2 1 1 3 6 8 9
Wind_Direction
153 150 151 150 140 128 132 144 143 143 151 152 123 118 112 113 122 109 100 96 88 81 74 68 64 62 61 60 57 53 52 52 51 50 47 46 48 51
154 155 157 152 135 129 134 145 140 143 144 155 136 141 131 128 125 113 103 103 96 91 83 76 70 66 63 62 59 56 54 53 53 53 51 50 51 53
166 166 170 154 135 131 124 125 121 123 126 129 121 130 120 115 115 122 122 112 104 99 94 86 78 71 67 66 63 59 56 53 53 54 54 52 52 53
172 159 159 147 140 138 130 128 131 132 133 135 137 136 130 133 138 148 140 132 129 115 109 101 91 81 73 72 70 65 61 57 55 54 54 53 52 53
174 169 161 146 149 151 148 147 144 133 128 134 141 138 136 138 131 140 130 133 143 138 128 118 107 97 87 82 79 73 68 63 58 56 54 52 50 49
161 153 158 155 156 157 156 151 136 128 129 132 138 141 148 151 133 139 120 126 137 142 134 135 127 118 105 96 93 88 80 75 69 62 56 52 49 47
158 156 141 127 132 139 141 138 134 134 139 139 146 145 154 155 165 167 152 151 152 148 129 148 143 132 130 113 105 106 104 94 83 73 64 58 52 47
160 147 137 127 125 120 121 125 133 145 153 150 160 166 175 176 169 165 160 152 204 208 136 172 152 157 171 146 124 118 115 111 101 88 71 68 60 51
152 147 148 142 135 130 122 121 121 132 150 155 163 177 177 179 166 171 177 170 188 194 133 194 166 161 175 152 149 146 141 130 118 112 102 80 65 48
149 149 141 141 141 136 135 135 127 119 147 148 160 172 166 167 168 168 167 147 142 156 130 167 193 171 144 144 154 154 161 164 157 148 127 103 36 10
160 146 141 140 144 142 142 144 138 127 102 99 106 113 124 131 132 125 130 133 157 226 154 151 188 147 141 173 171 170 172 169 165 156 129 25 340 319
166 145 138 140 144 143 151 149 151 154 132 105 90 87 112 130 134 144 153 156 159 208 206 156 174 129 151 228 135 153 173 200 199 203 222 307 323 6
166 155 152 147 149 154 148 151 155 146 145 141 135 129 126 134 141 141 149 155 166 203 193 153 162 151 162 207 192 172 166 177 197 226 239 268 269 169
169 160 159 157 158 161 161 153 142 135 136 138 142 155 164 167 164 152 145 132 140 172 173 147 156 165 157 177 236 212 204 195 173 193 217 228 245 239
161 157 156 160 161 163 168 163 150 146 149 155 169 183 182 172 152 136 121 111 86 91 125 138 142 151 151 183 200 192 217 249 194 193 214 200 210 217
167 151 152 155 155 155 154 165 169 171 167 175 176 174 158 147 148 147 142 137 117 348 338 120 136 144 162 188 173 197 186 206 224 220 217 233 222 198
157 147 148 155 166 169 172 176 176 174 180 179 171 164 157 152 160 159 155 154 163 186 211 291 113 123 142 157 189 213 209 224 214 202 198 258 252 219
161 163 170 173 180 181 180 184 188 190 188 181 173 171 171 170 171 173 173 175 182 191 196 197 160 94 28 332 230 218 222 225 226 200 183 220 266 256
173 179 181 182 185 186 186 190 195 193 184 178 178 178 177 177 177 183 186 187 194 197 197 185 175 168 196 252 272 234 208 217 198 209 213 223 248 254
193 191 190 188 187 189 190 191 190 186 182 180 179 180 180 180 184 189 193 195 197 196 195 192 196 199 205 219 241 267 222 202 202 225 249 261 265 261
201 203 201 194 192 191 187 186 187 188 184 181 184 186 187 185 190 194 195 202 198 195 203 214 216 196 172 124 203 271 261 226 214 212 221 249 285 283
202 202 203 200 194 190 185 184 188 189 185 186 188 189 189 190 194 195 194 196 201 204 209 205 178 161 165 201 228 243 259 269 251 240 236 215 212 236
207 202 202 200 195 188 184 186 187 188 187 187 187 190 190 194 198 196 197 195 189 190 188 188 182 184 203 205 219 236 244 243 235 253 266 248 240 249